Back to catalog

STARLINK-34292

AliveCommunicationsVLEO
NORAD 64390·PAYLOAD·🇺🇸 United States

Launched Jun 13, 2025 from Cape Canaveral Space Force Station

Loading…

Next Passes (next 24 hours)

TLE

FreshSource: CelesTrak SupGP

Epoch: Sep 14, 2026, 22:49 UTC

1 64390C 25127W   26257.95118056 -.00021826  00000+0 -79046-3 0  2572
2 64390  42.9994 191.1082 0001157 264.0241 327.3884 15.27592089    10

Track STARLINK-34292 in real time with AllMySat

Download on the App Store